Flag for U.S.A. Weather past 2 weeks in Paterson, New Jersey, U.S.A.

Now
77 °F

Clear.


Feels Like: 79 °F
Forecast: 70 / 92 °F
Wind: No wind

Location: Essex County Airport

Current Time: Sep 2, 2015 at 11:08:34 PM

Latest Report: Sep 2, 2015 at 9:53 PM


Visibility: 9 mi

Pressure: 29.91 "Hg

Humidity: 71%

Dew point: 67 °F

Location of PatersonLocation

Historic Weather in Paterson — Graph

°F

Paterson temperature yesterday

Maximum temperature yesterday: 89 °F (at 3:53 PM)
Minimum temperature yesterday: 68 °F (at 6:53 AM)
Average temperature yesterday: 78 °F

Past Weeks' High & Low Weather Summary

 TemperatureHumidityPressure
High92 °F (Sep 2, 3:53 PM)97% (Aug 24, 7:53 AM)30.24 "Hg (Aug 24, 7:53 AM)
Low56 °F (Aug 28, 4:53 AM)31% (Sep 2, 4:53 PM)29.82 "Hg (Aug 25, 3:53 PM)
Average75 °F63%30.03 "Hg
* Reported Aug 18 9:53 PM — Sep 2 9:53 PM, Paterson, Weather by CustomWeather, © 2015

Note: Actual official high and low records may vary slightly from our data, if they occured in-between our weather recording intervals... More about our weather records

Advertising

Paterson weather history for previous 24 hours

 ConditionsComfort  
Time TempWeatherWind HumidityBarometerVisibility
9:53 PM
Wed, Sep 2
77 °FClear.No wind71%29.91 "Hg9 mi
8:53 PM79 °FClear.No wind67%29.91 "Hg10 mi
7:53 PM82 °FSunny.No wind56%29.90 "Hg10 mi
6:53 PM87 °FSunny.5 mph43%29.90 "Hg10 mi
5:53 PM91 °FSunny.5 mph33%29.90 "Hg10 mi
4:53 PM91 °FSunny.7 mph31%29.90 "Hg10 mi
3:53 PM92 °FPassing clouds.3 mph32%29.92 "Hg10 mi
2:53 PM91 °FSunny.5 mph32%29.94 "Hg10 mi
1:53 PM89 °FPassing clouds.7 mph39%29.96 "Hg10 mi
12:53 PM89 °FScattered clouds.3 mph45%29.98 "Hg9 mi
11:53 AM85 °FSunny.No wind50%30.00 "Hg9 mi
10:53 AM82 °FSunny.No wind60%30.03 "Hg7 mi
9:53 AM77 °FSunny.3 mph71%30.04 "Hg6 mi
8:53 AM72 °FSunny.3 mph76%30.06 "Hg6 mi
7:53 AM68 °FSunny.No wind84%30.06 "Hg5 mi
6:53 AM65 °FFog.No wind91%30.05 "Hg5 mi
5:53 AM65 °FFog.No wind91%30.04 "Hg6 mi
4:53 AM66 °FFog.No wind87%30.04 "Hg6 mi
3:53 AM66 °FFog.No wind87%30.05 "Hg6 mi
2:53 AM67 °FClear.No wind87%30.06 "Hg7 mi
1:53 AM68 °FClear.No wind84%30.06 "Hg8 mi
12:53 AM70 °FClear.No wind79%30.08 "Hg9 mi
11:53 PM
Tue, Sep 1
71 °FClear.No wind78%30.07 "Hg9 mi
Weather by CustomWeather, © 2015

See weather overviewHow to use our weather pages